AAR211 KSFO-RKSI

Flight info

Callsign AAR211
Flight time N/A
Altitude 34000
Route GNNRR3 AMAKR DCT REDWD DCT UNVER DCT 42N130W 47N140W 52N150W 55N160W/N0486F360 56N170W DCT POOFF DCT NIKLL/N0481F370 R220 NUZAN/N0490F380 R220 NUBDA/N0488F390 R220 NODAN/N0485F380 R217 ASTER/N0484F400 R217 GTC Y142 SAMON Y14 SUGNO Y16 SAPRA Y685 GUKDO GUKDO2H
Aircraft B772/H-SDE2E3FGHIJ5LORVWXY/LB1D1

Departure

Time 2026-05-05 00:58
Airport San Francisco International Airport (KSFO)

Arrival

Time N/A
Airport Incheon International Airport (RKSI)
Time Latitude Longitude Altitude Speed Heading
2026-05-05 00:09 37.61280 -122.38857 38 ft 0 kts 297°
2026-05-05 00:42 37.61280 -122.38856 38 ft 0 kts 297°
2026-05-05 00:43 37.61274 -122.38841 38 ft 2 kts 296°
2026-05-05 00:43 37.61268 -122.38824 38 ft 2 kts 296°
2026-05-05 00:43 37.61263 -122.38813 38 ft 0 kts 297°
2026-05-05 00:43 37.61258 -122.38797 38 ft 2 kts 281°
2026-05-05 00:44 37.61257 -122.38779 38 ft 2 kts 260°
2026-05-05 00:44 37.61261 -122.38760 38 ft 2 kts 242°
2026-05-05 00:44 37.61270 -122.38746 38 ft 2 kts 223°
2026-05-05 00:44 37.61279 -122.38736 38 ft 0 kts 207°
2026-05-05 00:45 37.61283 -122.38734 38 ft 0 kts 206°
2026-05-05 00:47 37.61282 -122.38734 38 ft 0 kts 206°
2026-05-05 00:48 37.61272 -122.38741 38 ft 2 kts 206°
2026-05-05 00:48 37.61235 -122.38764 38 ft 10 kts 206°
2026-05-05 00:48 37.61134 -122.38831 38 ft 22 kts 208°
2026-05-05 00:48 37.60963 -122.38892 36 ft 28 kts 147°
2026-05-05 00:49 37.60844 -122.38664 38 ft 35 kts 120°
2026-05-05 00:49 37.60810 -122.38590 38 ft 0 kts 120°
2026-05-05 00:50 37.60798 -122.38563 38 ft 8 kts 120°
2026-05-05 00:50 37.60796 -122.38467 38 ft 14 kts 59°
2026-05-05 00:50 37.60883 -122.38368 38 ft 19 kts 63°
2026-05-05 00:51 37.60866 -122.38183 35 ft 25 kts 111°
2026-05-05 00:51 37.60777 -122.37953 30 ft 32 kts 116°
2026-05-05 00:51 37.60882 -122.37753 27 ft 33 kts 28°
2026-05-05 00:51 37.61103 -122.37602 25 ft 39 kts 28°
2026-05-05 00:52 37.61360 -122.37436 23 ft 42 kts 30°
2026-05-05 00:52 37.61458 -122.37370 22 ft 0 kts 27°
2026-05-05 00:52 37.61460 -122.37369 22 ft 2 kts 27°
2026-05-05 00:52 37.61505 -122.37329 22 ft 13 kts 43°
2026-05-05 00:53 37.61555 -122.37189 19 ft 23 kts 91°
2026-05-05 00:53 37.61486 -122.36966 18 ft 31 kts 127°
2026-05-05 00:53 37.61345 -122.36726 18 ft 34 kts 118°
2026-05-05 00:53 37.61232 -122.36460 16 ft 34 kts 118°
2026-05-05 00:54 37.61121 -122.36198 15 ft 33 kts 118°
2026-05-05 00:54 37.61058 -122.36006 15 ft 0 kts 81°
2026-05-05 00:54 37.61063 -122.35983 15 ft 7 kts 72°
2026-05-05 00:55 37.61124 -122.35909 15 ft 17 kts 12°
2026-05-05 00:55 37.61238 -122.36000 15 ft 11 kts 300°
2026-05-05 00:55 37.61239 -122.36002 15 ft 0 kts 300°
2026-05-05 00:57 37.61240 -122.36005 15 ft 2 kts 300°
2026-05-05 00:57 37.61319 -122.36189 15 ft 56 kts 297°
2026-05-05 00:57 37.61610 -122.36885 19 ft 120 kts 296°
2026-05-05 00:58 37.62076 -122.38030 55 ft 169 kts 294°
2026-05-05 00:58 37.62632 -122.39376 668 ft 170 kts 295°
2026-05-05 00:58 37.63203 -122.40784 1191 ft 187 kts 296°
2026-05-05 00:58 37.63750 -122.42199 2054 ft 185 kts 296°
2026-05-05 00:59 37.64330 -122.43677 2717 ft 198 kts 295°
2026-05-05 00:59 37.64940 -122.45400 3003 ft 224 kts 296°
2026-05-05 00:59 37.65762 -122.47166 3527 ft 244 kts 304°
2026-05-05 00:59 37.66731 -122.48972 4271 ft 258 kts 305°
2026-05-05 01:00 37.67768 -122.50870 5141 ft 267 kts 307°
2026-05-05 01:00 37.68889 -122.52773 6031 ft 274 kts 308°
2026-05-05 01:00 37.70043 -122.54703 6943 ft 279 kts 309°
2026-05-05 01:00 37.71407 -122.56378 7876 ft 279 kts 324°
2026-05-05 01:01 37.72967 -122.57815 8805 ft 282 kts 326°
2026-05-05 01:01 37.74554 -122.59248 9721 ft 284 kts 326°
2026-05-05 01:01 37.76178 -122.60715 10604 ft 287 kts 326°
2026-05-05 01:01 37.77787 -122.62168 11391 ft 292 kts 326°
2026-05-05 01:02 37.79445 -122.63666 12268 ft 294 kts 327°
2026-05-05 01:02 37.81099 -122.65163 13150 ft 295 kts 327°
2026-05-05 01:02 37.82763 -122.66669 13976 ft 299 kts 327°
2026-05-05 01:02 37.84484 -122.68226 14661 ft 305 kts 328°
2026-05-05 01:03 37.86198 -122.69778 15446 ft 307 kts 328°
2026-05-05 01:03 37.87943 -122.71360 16196 ft 310 kts 328°
2026-05-05 01:03 37.89694 -122.72947 16877 ft 314 kts 328°
2026-05-05 01:03 37.91470 -122.74558 17555 ft 317 kts 329°
2026-05-05 01:04 37.93267 -122.76189 18235 ft 320 kts 329°
2026-05-05 01:04 37.96923 -122.79510 18988 ft 327 kts 330°
2026-05-05 01:04 37.98769 -122.81190 19001 ft 328 kts 330°
2026-05-05 01:05 38.00625 -122.82880 19010 ft 327 kts 330°
2026-05-05 01:05 38.02464 -122.84556 19026 ft 326 kts 330°
2026-05-05 01:05 38.04308 -122.86238 19007 ft 325 kts 330°
2026-05-05 01:05 38.06157 -122.87926 19019 ft 326 kts 330°
2026-05-05 01:06 38.08005 -122.89613 19019 ft 325 kts 330°
2026-05-05 01:06 38.09869 -122.91316 19004 ft 327 kts 330°
2026-05-05 01:06 38.11719 -122.93007 19018 ft 327 kts 330°
2026-05-05 01:06 38.13560 -122.94691 19022 ft 331 kts 330°
2026-05-05 01:07 38.15517 -122.96471 19022 ft 357 kts 330°
2026-05-05 01:07 38.17601 -122.98368 19052 ft 382 kts 329°
2026-05-05 01:07 38.19809 -123.00384 19310 ft 399 kts 329°
2026-05-05 01:07 38.22187 -123.02561 19715 ft 413 kts 329°
2026-05-05 01:08 38.24544 -123.04723 20314 ft 420 kts 329°
2026-05-05 01:08 38.26934 -123.06919 21036 ft 424 kts 329°
2026-05-05 01:08 38.29345 -123.09137 21794 ft 426 kts 330°
2026-05-05 01:08 38.31762 -123.11362 22438 ft 431 kts 330°
2026-05-05 01:09 38.34220 -123.13624 22976 ft 438 kts 330°
2026-05-05 01:09 38.36745 -123.15951 23601 ft 443 kts 330°
2026-05-05 01:09 38.39252 -123.18265 24283 ft 445 kts 330°
2026-05-05 01:09 38.41858 -123.20673 24952 ft 449 kts 330°
2026-05-05 01:10 38.44437 -123.23057 25502 ft 454 kts 330°
2026-05-05 01:10 38.47040 -123.25465 26050 ft 459 kts 330°
2026-05-05 01:10 38.49635 -123.27869 26615 ft 462 kts 330°
2026-05-05 01:10 38.52263 -123.30306 27179 ft 465 kts 330°
2026-05-05 01:11 38.54911 -123.32764 27685 ft 469 kts 331°
2026-05-05 01:11 38.57536 -123.35201 28140 ft 472 kts 330°